Hourly Weather Ceres

Today, 25 June, Friday

Time Temperature Precipitation Wind Pressure Humidity
00:00 +20°C° 0 mm 0 mps 710 mmHg 44%
01:00 +19°C° 0 mm 0 mps 710 mmHg 45%
02:00 +19°C° 0 mm 0 mps 709 mmHg 46%
03:00 +20°C° 0 mm 1 mps 709 mmHg 48%
04:00 +20°C° 0 mm 1 mps 709 mmHg 49%
05:00 +20°C° 0 mm 1 mps 709 mmHg 51%
06:00 +19°C° 0 mm 1 mps 710 mmHg 53%
07:00 +21°C° 0 mm 1 mps 710 mmHg 48%
08:00 +24°C° 0 mm 1 mps 711 mmHg 43%
09:00 +26°C° 0 mm 1 mps 712 mmHg 38%
10:00 +28°C° 0 mm 1 mps 712 mmHg 34%
11:00 +31°C° 0 mm 1 mps 712 mmHg 29%
12:00 +33°C° 0 mm 1 mps 712 mmHg 25%
13:00 +33°C° 0 mm 1 mps 711 mmHg 24%
14:00 +34°C° 0 mm 1 mps 710 mmHg 22%
15:00 +34°C° 0 mm 1 mps 710 mmHg 21%
16:00 +32°C° 0 mm 1 mps 709 mmHg 25%
17:00 +29°C° 0 mm 1 mps 709 mmHg 28%
18:00 +27°C° 0 mm 1 mps 709 mmHg 31%
19:00 +26°C° 0 mm 1 mps 709 mmHg 33%
20:00 +25°C° 0 mm 1 mps 709 mmHg 35%
21:00 +24°C° 0 mm 1 mps 710 mmHg 37%
22:00 +23°C° 0 mm 1 mps 710 mmHg 39%
23:00 +22°C° 0 mm 1 mps 710 mmHg 41%

Tomorrow, 26 June, Saturday

Time Temperature Precipitation Wind Pressure Humidity
00:00 +22°C° 0 mm 1 mps 709 mmHg 43%
01:00 +21°C° 0 mm 1 mps 709 mmHg 44%
02:00 +21°C° 0 mm 1 mps 709 mmHg 46%
03:00 +20°C° 0 mm 1 mps 708 mmHg 47%
04:00 +20°C° 0 mm 1 mps 709 mmHg 49%
05:00 +19°C° 0 mm 1 mps 709 mmHg 50%
06:00 +19°C° 0 mm 1 mps 709 mmHg 51%
07:00 +20°C° 0 mm 2 mps 710 mmHg 44%
08:00 +23°C° 0 mm 2 mps 710 mmHg 38%
09:00 +26°C° 0 mm 2 mps 711 mmHg 31%
10:00 +28°C° 0 mm 3 mps 711 mmHg 27%
11:00 +30°C° 0 mm 3 mps 711 mmHg 23%
12:00 +33°C° 0 mm 4 mps 711 mmHg 19%
13:00 +34°C° 0 mm 3 mps 710 mmHg 18%
14:00 +34°C° 0 mm 3 mps 710 mmHg 16%
15:00 +35°C° 0 mm 2 mps 709 mmHg 15%
16:00 +31°C° 0 mm 2 mps 709 mmHg 18%
17:00 +29°C° 0 mm 1 mps 708 mmHg 20%
18:00 +26°C° 0 mm 1 mps 708 mmHg 23%
19:00 +25°C° 0 mm 1 mps 709 mmHg 26%
20:00 +24°C° 0 mm 1 mps 709 mmHg 29%
21:00 +22°C° 0 mm 1 mps 710 mmHg 31%
22:00 +21°C° 0 mm 1 mps 710 mmHg 34%
23:00 +21°C° 0 mm 1 mps 710 mmHg 37%

Day after tomorrow, 27 June, Sunday

Time Temperature Precipitation Wind Pressure Humidity
00:00 +20°C° 0 mm 1 mps 709 mmHg 40%
01:00 +19°C° 0 mm 1 mps 709 mmHg 42%
02:00 +19°C° 0 mm 1 mps 709 mmHg 44%
03:00 +18°C° 0 mm 1 mps 708 mmHg 46%
04:00 +18°C° 0 mm 1 mps 709 mmHg 46%
05:00 +18°C° 0 mm 1 mps 709 mmHg 46%
06:00 +16°C° 0 mm 1 mps 709 mmHg 46%
07:00 +19°C° 0 mm 2 mps 710 mmHg 40%
08:00 +21°C° 0 mm 2 mps 711 mmHg 35%
09:00 +25°C° 0 mm 3 mps 712 mmHg 29%
10:00 +27°C° 0 mm 3 mps 712 mmHg 26%
11:00 +30°C° 0 mm 3 mps 711 mmHg 22%
12:00 +32°C° 0 mm 2 mps 711 mmHg 19%
13:00 +34°C° 0 mm 2 mps 711 mmHg 18%
14:00 +33°C° 0 mm 1 mps 710 mmHg 17%
15:00 +34°C° 0 mm 1 mps 709 mmHg 16%
16:00 +31°C° 0 mm 1 mps 709 mmHg 19%
17:00 +29°C° 0 mm 1 mps 709 mmHg 22%
18:00 +24°C° 0 mm 0 mps 709 mmHg 25%
19:00 +23°C° 0 mm 0 mps 709 mmHg 26%
20:00 +24°C° 0 mm 1 mps 709 mmHg 28%
21:00 +23°C° 0 mm 1 mps 710 mmHg 29%
22:00 +22°C° 0 mm 1 mps 710 mmHg 32%
23:00 +21°C° 0 mm 1 mps 710 mmHg 34%

28 June, Monday

Time Temperature Precipitation Wind Pressure Humidity
00:00 +21°C° 0 mm 1 mps 710 mmHg 37%
01:00 +20°C° 0 mm 1 mps 710 mmHg 40%
02:00 +19°C° 0 mm 1 mps 710 mmHg 42%
03:00 +19°C° 0 mm 1 mps 710 mmHg 45%
04:00 +19°C° 0 mm 1 mps 710 mmHg 48%
05:00 +18°C° 0 mm 1 mps 710 mmHg 50%
06:00 +18°C° 0 mm 1 mps 710 mmHg 52%
07:00 +20°C° 0 mm 1 mps 711 mmHg 46%
08:00 +23°C° 0 mm 2 mps 712 mmHg 41%
09:00 +25°C° 0 mm 2 mps 712 mmHg 35%
10:00 +28°C° 0 mm 2 mps 712 mmHg 30%
11:00 +30°C° 0 mm 2 mps 712 mmHg 25%
12:00 +34°C° 0 mm 2 mps 712 mmHg 19%
13:00 +34°C° 0 mm 2 mps 711 mmHg 18%
14:00 +35°C° 0 mm 2 mps 711 mmHg 17%
15:00 +34°C° 0 mm 1 mps 710 mmHg 16%
16:00 +32°C° 0 mm 1 mps 710 mmHg 20%
17:00 +29°C° 0 mm 1 mps 710 mmHg 23%
18:00 +27°C° 0 mm 1 mps 710 mmHg 26%
19:00 +26°C° 0 mm 1 mps 710 mmHg 28%
20:00 +24°C° 0 mm 1 mps 711 mmHg 30%
21:00 +23°C° 0 mm 1 mps 711 mmHg 33%
22:00 +22°C° 0 mm 1 mps 711 mmHg 34%
23:00 +22°C° 0 mm 1 mps 711 mmHg 36%

29 June, Tuesday

Time Temperature Precipitation Wind Pressure Humidity
00:00 +21°C° 0 mm 1 mps 711 mmHg 37%
01:00 +20°C° 0 mm 1 mps 711 mmHg 38%
02:00 +20°C° 0 mm 1 mps 711 mmHg 39%
03:00 +19°C° 0 mm 1 mps 710 mmHg 41%
04:00 +19°C° 0 mm 1 mps 711 mmHg 42%
05:00 +18°C° 0 mm 1 mps 711 mmHg 44%
06:00 +16°C° 0 mm 1 mps 711 mmHg 46%
07:00 +19°C° 0 mm 2 mps 712 mmHg 41%
08:00 +21°C° 0 mm 2 mps 713 mmHg 37%
09:00 +24°C° 0 mm 2 mps 713 mmHg 33%
10:00 +26°C° 0 mm 2 mps 713 mmHg 29%
11:00 +29°C° 0 mm 2 mps 713 mmHg 25%
12:00 +32°C° 0 mm 2 mps 713 mmHg 21%
13:00 +32°C° 0 mm 2 mps 713 mmHg 20%
14:00 +33°C° 0 mm 1 mps 712 mmHg 19%
15:00 +34°C° 0 mm 1 mps 711 mmHg 18%
16:00 +31°C° 0 mm 1 mps 711 mmHg 21%
17:00 +29°C° 0 mm 1 mps 711 mmHg 24%
18:00 +26°C° 0 mm 1 mps 711 mmHg 27%
19:00 +25°C° 0 mm 1 mps 711 mmHg 29%
20:00 +24°C° 0 mm 2 mps 711 mmHg 32%
21:00 +21°C° 0 mm 2 mps 712 mmHg 35%
22:00 +20°C° 0 mm 2 mps 712 mmHg 40%
23:00 +19°C° 0 mm 2 mps 712 mmHg 44%

30 June, Wednesday

Time Temperature Precipitation Wind Pressure Humidity
00:00 +19°C° 0 mm 3 mps 712 mmHg 49%
01:00 +18°C° 0 mm 3 mps 711 mmHg 52%
02:00 +17°C° 0 mm 3 mps 711 mmHg 55%
03:00 +17°C° 0 mm 3 mps 711 mmHg 58%
04:00 +16°C° 0 mm 3 mps 711 mmHg 61%
05:00 +16°C° 0 mm 2 mps 711 mmHg 64%
06:00 +15°C° 0 mm 2 mps 711 mmHg 67%
07:00 +17°C° 0 mm 2 mps 711 mmHg 59%
08:00 +19°C° 0 mm 2 mps 712 mmHg 51%
09:00 +21°C° 0 mm 2 mps 712 mmHg 44%
10:00 +26°C° 0 mm 2 mps 712 mmHg 37%
11:00 +29°C° 0 mm 3 mps 712 mmHg 30%
12:00 +33°C° 0 mm 3 mps 712 mmHg 23%
13:00 +32°C° 0 mm 2 mps 711 mmHg 21%
14:00 +34°C° 0 mm 2 mps 711 mmHg 19%
15:00 +34°C° 0 mm 1 mps 710 mmHg 18%
16:00 +31°C° 0 mm 1 mps 710 mmHg 21%
17:00 +29°C° 0 mm 1 mps 709 mmHg 24%
18:00 +25°C° 0 mm 0 mps 709 mmHg 27%
19:00 +25°C° 0 mm 1 mps 709 mmHg 31%
20:00 +24°C° 0 mm 1 mps 710 mmHg 35%
21:00 +21°C° 0 mm 2 mps 710 mmHg 38%
22:00 +20°C° 0 mm 2 mps 710 mmHg 42%
23:00 +19°C° 0 mm 2 mps 710 mmHg 46%
Show more

We Need Your Consent

Meteoprog and our Service Providers may store and access personal data such as cookies, device identifiers or other similar technologies on your device and process such data to personalise content and ads, as well as provide social media features and to analyse the traffic.

  • Store and/or access information on your device

    Cookies, device identifiers or other information can be stored or accessed on your device for the purposes indicated above.

  • Personalised ads and content, ad and content measurement, audience insights, and products development

    Ads and content can be personalised based on a profile. More data can be added to better personalise ads and content. Ad and content performance can be measured. Insights about the audience who saw the ads and content can be derived. Such data can be used to develop or improve user’s experience, systems and software.

By clicking ‘I Agree’ you will allow the use of indicated cookies, device identifiers, web beacons or other similar technologies. Your settings can be changed in the browser on your device.

For certain purposes, legitimate interests may be relied on, rather than consent. You can read more about this in our Privacy and Cookie Policy.